Regional Weather Roundup
Issued by NWS Sterling, VA

Home | Current Version | Previous Version | Text Only | Print | Product List | Glossary Off
Versions: 1 2 3 4 5 6 7 8 9 10 11 12 13 14 15 16 17 18 19 20 21 22 23 24 25 26 27 28 29 30 31 32 33 34 35 36 37 38 39 40 41 42 43

000
ASUS41 KLWX 270810
RWRLWX

REGIONAL WEATHER ROUNDUP
NATIONAL WEATHER SERVICE BALTIMORE MD/WASHINGTON DC
300 AM EST SAT DEC 27 2014

Note: "FAIR" indicates few or no clouds below 12,000 feet
with no significant weather and/or obstructions to visibility.
 TC=TEMPERATURE CELSIUS

 * =Non NWS site. Station does not report precipitation (e.g. rain,
    snow, etc.), thunder, or fog.

DCZ001-MDZ009-015-VAZ040>042-051-053>054-270900-
WASHINGTON METRO

CITY           SKY/WX    TMP DP  RH WIND       PRES   REMARKS
WASHINGTON NAT FAIR      38  32  79 SW3       30.26S
DULLES         MOCLDY    28  26  92 CALM      30.24R
ANDREWS AFB    PTCLDY    33  30  90 S5        30.24S
FT BELVOIR     PTCLDY    30  28  95 W1        30.27R
QUANTICO       PTCLDY    32  29  88 NW8       30.28R WCI  25
COLLEGE PARK*  FAIR      32  30  93 CALM      30.24S
LEESBURG*      MOCLDY    32  32 100 NW3       30.26S
MANASSAS*      PTCLDY    27  27 100 CALM      30.26R
GAITHERSBURG*  PTCLDY    30  28  93 CALM      30.27S

$$

MDZ006>007-011-014-270900-
BALTIMORE METRO

CITY           SKY/WX    TMP DP  RH WIND       PRES   REMARKS
BWI AIRPORT    PTCLDY    31  28  89 CALM      30.24S
MD SCIENCE CTR   N/A     39  32  76 MISG      30.25S
MARTIN STATE   PTCLDY    32  32 100 CALM      30.27R
ANNAPOLIS      PTCLDY    35  33  92 CALM      30.25S
FORT MEADE*    PTCLDY    28  28 100 CALM      30.26S

$$

MDZ012-015-019>023-270900-
MARYLAND EASTERN SHORE

CITY           SKY/WX    TMP DP  RH WIND       PRES   REMARKS
OCEAN CITY     CLEAR     37  35  92 W7        30.27R
SALISBURY      CLEAR     35  31  85 S3        30.26F FOG
BAY BRIDGE AP*   N/A     36  36 100 CALM      30.26S
CAMBRIDGE*       N/A     36  34  93 S3        30.25F VSB 1/2
EASTON*        PTCLDY    37  37 100 CALM      30.29F

$$

MDZ017>025-270900-
SOUTHERN MARYLAND

CITY           SKY/WX    TMP DP  RH WIND       PRES   REMARKS
PATUXENT RIVER PTCLDY    32  30  92 CALM      30.25F
ST INIGOES     PTCLDY    33  29  85 CALM      30.25F FOG
LEONARDTOWN*   PTCLDY    37  34  87 SW5       30.26F

$$

MDZ003>005-270900-
NORTH CENTRAL MARYLAND

CITY           SKY/WX    TMP DP  RH WIND       PRES   REMARKS
FREDERICK*     PTCLDY    32  28  86 CALM      30.27S
HAGERSTOWN APT PTCLDY    37  29  72 CALM      30.23R
WESTMINSTER*   PTCLDY    36  30  80 CALM      30.23R

$$

MDZ501>502-270900-
WESTERN MARYLAND

CITY           SKY/WX    TMP DP  RH WIND       PRES   REMARKS
OAKLAND*       CLOUDY    41   5  22 SW7       30.19R
CUMBERLAND*    CLOUDY    32  32 100 NW3       30.27S

$$

VAZ025>031-270900-
SHENANDOAH VALLEY

CITY           SKY/WX    TMP DP  RH WIND       PRES   REMARKS
WINCHESTER*    MOCLDY    39  27  60 CALM      30.23R
FRONT ROYAL*   FAIR      32  28  86 CALM      30.22R
LURAY*         FAIR      34  34 100 NW3       30.24R
NEW MARKET*    FAIR      31  29  93 CALM      30.25R
STAUNTON*      MOCLDY    32  27  80 CALM      30.25S
WAYNESBORO*    FAIR      32  25  74 CALM      30.22F

$$

WVZ021-048>050-054>055-270900-
EASTERN WEST VIRGINIA PANHANDLE

CITY           SKY/WX    TMP DP  RH WIND       PRES   REMARKS
MARTINSBURG    PTCLDY    32  25  75 NW5       30.24R
PETERSBURG*    MOCLDY    31  31  99 CALM      30.26R

$$

VAZ036>039-050-270900-
CENTRAL FOOTHILLS

CITY           SKY/WX    TMP DP  RH WIND       PRES   REMARKS
CHARLOTTESVILL MOCLDY    33  30  88 W5        30.23S
CULPEPER*      PTCLDY    28  27  93 CALM      30.25S
ORANGE*        MOCLDY    32  30  93 CALM      30.26R
GORDONSVILLE*  FAIR      30  29  96 CALM      30.24R
WARRENTON*     FAIR      28  28 100 CALM      30.24R

$$

VAZ055>057-270900-
NORTH AND CENTRAL PIEDMONT

CITY           SKY/WX    TMP DP  RH WIND       PRES   REMARKS
FREDERICKSBRG* PTCLDY    31  31 100 CALM      30.26R
STAFFORD*      PTCLDY    28  28 100 CALM      30.30R

$$

NCZ024-NYZ072-PAZ021-071-VAZ022-071-270900-
OTHER REGIONAL OBSERVATIONS

CITY           SKY/WX    TMP DP  RH WIND       PRES   REMARKS
NEW YORK CITY  PTCLDY    45  29  53 CALM      30.23R
PHILADELPHIA   PTCLDY    34  30  85 SW5       30.26R
PITTSBURGH     CLOUDY    36  30  79 SE3       30.20R
ROANOKE        PTCLDY    35  28  75 CALM      30.28R
RICHMOND       PTCLDY    35  30  82 SE5       30.26F
RALEIGH        PTCLDY    35  32  88 CALM      30.29S

$$

ANZ530>537-270900-
MARINE OBSERVATIONS

STATION/POSITION TIME  TEMP    WIND        PRES
                       AIR SEA DIR/SP/G
                 (UTC) (F)     (DEG/KT/KT) (MB)
THOMAS PT LIGHT  0800   41 42  210/  5/  5 1025.2F
BALT KEY BRIDGE  0800   39     160/  3/  3 1024.0F
COVE POINT       0800   42     210/  5/  6 1024.4S
LEWISETTA        0800   39 44  220/  6/  7 1024.6F
SOLOMONS ISLAND  0800      43                N/A
PINEY POINT      0800          200/  4/  5   N/A

$$



USA.gov is the U.S. government's official web portal to all federal, state and local government web resources and services.